Regional Weather Roundup
Issued by NWS Wakefield, VA

Home | Current Version | Previous Version | Text Only | Print | Product List | Glossary Off
Versions: 1 2 3 4 5 6 7 8 9 10 11 12 13 14 15 16 17 18 19 20 21 22 23 24 25 26 27 28 29 30 31 32 33 34 35 36 37 38 39 40 41 42 43 44 45 46 47 48 49 50

194
ASUS41 KAKQ 160715
RWRAKQ

REGIONAL WEATHER ROUNDUP
NATIONAL WEATHER SERVICE WAKEFIELD VA
200 AM EST SAT DEC 16 2017

Note: "fair" indicates few or no clouds below 12,000 feet with no
significant weather and/or obstructions to visibility. * = Denotes
station may not report precipitation (e.g., rain,snow,etc.),
thunder or fog.

VAZ042-051-052>054-056-160800-
NORTHERN VIRGINIA

CITY           SKY/WX    TMP DP  RH WIND       PRES   REMARKS
WASH NATIONAL  CLOUDY    27  23  85 S9        30.06R
DULLES         CLOUDY    25  23  92 S7        30.04R
FORT BELVOIR   CLEAR     19  17  90 CALM      30.06R
QUANTICO       CLEAR     23  21  92 NW7       30.09R
FREDERICKSBRG* CLEAR     20  19  97 CALM      30.07R
STAFFORD*      CLEAR     19  19 100 CALM      30.11R
WARRENTON      PTCLDY    19  14  82 CALM      30.05R
CULPEPER*      CLEAR     16  12  87 CALM      30.07R
MANASSAS*      CLOUDY    18  16  92 S5        30.07R
LEESBURG*      CLOUDY    32  27  80 W6        30.04R
WINCHESTER     CLOUDY    32  18  55 W15G21    30.02R WCI  22
FRONT ROYAL*   CLOUDY    34  18  51 W10       30.02R
LURAY*         CLOUDY    32  19  59 SW3       30.03R
$$

VAZ048-049-060>072-079>083-160800-
CENTRAL AND SOUTH CENTRAL VIRGINIA

CITY           SKY/WX    TMP DP  RH WIND       PRES   REMARKS
RICHMOND       PTCLDY    33  20  58 W6        30.10R
CHESTERFIELD*  NOT AVBL
PETERSBURG*    CLEAR     21  16  79 W5        30.11R
HANOVER        CLEAR     22  19  89 S3        30.10R
TAPPAHANNOCK*  CLEAR     21  19  90 CALM      30.10R
QUINTON*       FAIR      21  20  96 CALM      30.10R
CHARLOTTSVILLE CLEAR     30  16  56 SW6       30.04S
GORDONSVILLE*  SUNNY     18  17  95 S7        30.06R
ORANGE*        CLEAR     18  14  86 CALM      30.06R
LOUISA*        CLEAR     26  17  68 SW6       30.11R
BUMPASS*       FAIR      21  18  86 CALM      30.08R
FARMVILLE*     CLEAR     22  19  89 S3        30.09R
CREWE*         FAIR      24  21  89 CALM      30.10R
FORT PICKETT*  NOT AVBL
CHASE CITY*    FAIR      26  20  78 CALM      30.12R
CLARKSVILLE*   FAIR      28  21  74 W3        30.12R
SOUTH HILL*    CLEAR     30  21  69 CALM      30.17R
LAWRENCEVILLE* FAIR      27  20  76 CALM      30.11R
EMPORIA*       PTCLDY    30  21  69 SW3       30.14R
$$

VAZ088>098-160800-
SOUTHEAST VIRGINIA

CITY           SKY/WX    TMP DP  RH WIND       PRES   REMARKS
NORFOLK        CLEAR     30  24  78 CALM      30.11R
VIRGINIA BEACH CLEAR     28  22  78 SW3       30.10R
NORFOLK NAVAL  CLEAR     33  24  69 W5        30.12R
WEST POINT*    CLEAR    N/A N/A N/A CALM      30.12R
SALUDA*        FAIR      24  19  82 CALM      30.10R
NEWPORT NEWS   CLEAR     25  20  81 CALM      30.10R
LANGLEY AFB    CLEAR     26  21  80 CALM      30.09R
FORT EUSTIS    CLEAR     29  22  74 CALM      30.09R
WILLIAMSBURG*  CLEAR     27  23  86 CALM      30.12R
HR EXEC AP*    FAIR      20  18  92 CALM      30.12R
FRANKLIN*      PTCLDY    29  22  74 W3        30.13R
US460-WAKEFLD  PTCLDY    23  21  92 CALM      30.12R
$$

VAZ020-022-025-037-045-160800-
WEST CENTRAL AND SOUTHWEST VIRGINIA

CITY           SKY/WX    TMP DP  RH WIND       PRES   REMARKS
STAUNTON*      CLEAR     27  15  60 W5        30.05R
WAYNESBORO*    SUNNY     28  16  61 W5        30.01S
HOT SPRINGS VA CLOUDY    22  14  70 W30G38    29.89R WCI   4
LYNCHBURG      PTCLDY    28  17  63 S9        30.07R
DANVILLE       CLEAR     25  19  78 SW3       30.13R
SOUTH BOSTON*  FAIR      27  18  70 CALM      30.13R
MARTINSVILLE   PTCLDY    22  18  83 CALM      30.13S
ROANOKE        CLOUDY    34  19  54 NW23G31   30.09R WCI  22
BLACKSBURG     CLOUDY    30  19  64 NW15G30   30.07S WCI  19
DUBLIN*        CLOUDY    32  20  62 W16G25    30.08S WCI  21
MARION*        CLOUDY    29  18  62 SW12G21   30.09R WCI  20
HILLSVILLE*    CLOUDY    28  18  67 NW15G24   30.02S WCI  16
RICHLANDS*     CLOUDY    26  19  73 W8        30.10S
WISE*          CLOUDY    28  23  80 CALM      30.12S
ABINGDON*      CLOUDY    30  24  77 W8        30.15R
$$

MDZ021>025-VAZ099-100-160800-
SOUTHERN MARYLAND AND THE DELMARVA PENINSULA

CITY           SKY/WX    TMP DP  RH WIND       PRES   REMARKS
PATUXENT RIVER CLEAR     26  23  88 SW7       30.06S
BAY BRIDGE APT CLEAR     30  25  80 MISG      30.05R
LEONARDTOWN    CLEAR     27  23  86 SW3       30.07S
DOVER          CLEAR     22  22 100 SW5       30.04R
GEORGETOWN     CLEAR     25  22  88 SW5       30.06R FOG
EASTON         CLEAR     27  25  89 SW3       30.08R
CAMBRIDGE      CLEAR     27  25  93 CALM      30.06S
SALISBURY      CLEAR     26  25  96 W3        30.06R FOG
OCEAN CITY     CLEAR     27  25  92 W6        30.07R FOG
WALLOPS ISLAND CLEAR     29  28  96 W3        30.08R
ACCOMACK*      CLEAR     27  26  94 CALM      30.08S
$$

NCZ012>017-030>032-160800-
NORTH CENTRAL AND EASTERN NORTH CAROLINA

CITY           SKY/WX    TMP DP  RH WIND       PRES   REMARKS
ROANOKE RAPIDS FAIR      28  23  80 W5        30.13R
RALEIGH        CLEAR     27  21  78 CALM      30.14R
ELIZABETH CITY PTCLDY    29  25  85 W7        30.12R
AHOSKIE*       CLEAR     26  24  91 CALM      30.13R
EDENTON*       PTCLDY    36  27  71 NW6       30.13R
CURRITUCK*     PTCLDY    30  25  81 CALM      30.12R
KILL DEVIL HLS PTCLDY    35  27  74 CALM      30.10R
MANTEO         PTCLDY    37  28  67 NW8       30.12R
CAPE HATTERAS  CLEAR     41  30  65 NW12G22   30.12R
TARBORO*       NOT AVBL
GOLDSBORO      CLEAR     35  24  64 NW7       30.14R
WASHINGTON     CLEAR     32  26  78 NW3       30.14R
GREENVILLE     CLEAR     32  27  80 CALM      30.15R
NEW BERN       CLEAR     33  28  81 NW5       30.15R
WILMINGTON     CLEAR     39  30  70 NW5       30.15R
$$

VAZ048-160800-
ELSEWHERE

CITY           SKY/WX    TMP DP  RH WIND       PRES   REMARKS
HARRISBURG PA  MOCLDY    22  19  89 E6        29.98R
BALTIMORE      MOCLDY    25  23  92 SW5       30.03S
ANNAPOLIS      MOCLDY    25  24  96 VRB5      30.05R
ANDREWS AFB    CLOUDY    22  20  91 SW6       30.04R
PHILADELPHIA   PTCLDY    22  17  81 W12       30.02R WCI  10
HENDERSON NC   CLEAR     28  17  62 CALM      30.12R
GREENSBORO     PTCLDY    29  19  66 W8        30.12R
ROCKY MOUNT    PTCLDY    32  24  72 W3        30.15R
$$

VAZ100-160800-
MARINE

STATION/POSITION TIME  TEMP    WIND        PRES    WAVE   SWELL
                       AIR SEA DIR/SP/G            HT/PER HT/PER
                 (UTC) (F)     (DEG/KT/KT) (MB)    (FT/S) (FT/S)
BRANDYWINE LGT   0636   32     270/ 19/ 22 1017.2R
CAPE MAY NJ      0642   33 40  280/ 17/ 21 1016.4R
LEWES DE         0648   26 41  250/  6/  8 1017.3R
15NM E FENWICK I 0650   36 51  280/ 17/ 23 1017.6R   3/ 4
OCEAN-CITY-INLET 0648   28 41  280/  7/ 10 1018.4R
WACHAPREAGUE VA  0648   30 38  270/  2/  2 1018.9R
THOMAS POINT MD  0700   29 42  250/  9/ 11   N/A
GOOSES REEF MD   0700   33 45  240/ 14/ 16 1018.4    1/ 2
COVE POINT MD    0648   30     260/ 10/ 12 1018.6R
SOLOMONS ISLAND  0648   31 45  250/  5/  7 1017.9R
BISHOPS HEAD MD  0648   35 34  270/ 13/ 14 1018.4R
PINEY POINT MD   0636          290/  7/  9   N/A
POTOMAC MD       0700   33 44  280/  8/ 10 1017.9
CAMBRIDGE MD     0636   27 38              1018.3R
LEWISETTA VA     0648   29 39  250/  6/  7 1018.5R
RAPPAHANNOCK LGT 0636          270/ 13/ 16 1019.3R
STINGRAY PT      0700   32 45  290/ 10/ 12 1019.3    1
YORK RVR RNG VA  0636   34     290/  9/ 11 1019.5R
YORKTOWN VA      0636   32 46  270/  4/  6 1018.9R
JAMESTOWN VA     0700      43  260/  6/  8   N/A
DOMINION TERM VA 0636   35     310/ 10/ 12 1019.4R
KIPTOPEKE VA     0636      44  310/ 12/ 15   N/A
CAPE HENRY VA    0636   35     280/  7/ 11   N/A
WILLOUBY STN VA  0636          290/  9/ 10 1019.1R
S CRANEY ISL VA  0636   31     280/  5/  7 1019.0R
CAPE HENRY BUOY  0700      52                N/A     2/ 5
1ST LANDING BUOY 0700   36 46  320/ 12/ 16 1019.3    1/ 2
CAPE CHARLES BUO 0651      50                N/A     2/ 5
64NM E OF VA BCH 0650   42 58  320/ 19/ 23 1018.7R   6/ 6
DUCK PIER NC     0636   35 51  300/ 10/ 12 1019.1R
44100 DUCK FRF   0645      54                N/A     4/ 6
44056 DUCK FRF   0700      54                N/A     3/ 6
OREGON INLET NC  0636   38 47  320/  9/ 12 1019.2R
HATTERAS NC      0636   42 54  330/ 18/ 22 1019.1R
DIAMOND SHLS NC  0700   46 73  330/ 19/ 25 1019.7
CAPE LOOKOUT NC  0700          340/ 12/ 16 1020.5R
$$




USA.gov is the U.S. government's official web portal to all federal, state and local government web resources and services.